TimeCDT,TemperatureF,Dew PointF,Humidity,Sea Level PressureIn,VisibilityMPH,Wind Direction,Wind SpeedMPH,Gust SpeedMPH,PrecipitationIn,Events,Conditions,WindDirDegrees,DateUTC
12:52 AM,48.9,42.1,77,29.92,10.0,ESE,4.6,-,N/A,,Clear,110,2012-10-01 05:52:00
1:52 AM,48.9,42.1,77,29.92,10.0,Calm,Calm,-,N/A,,Clear,0,2012-10-01 06:52:00
2:52 AM,45.0,41.0,86,29.91,10.0,Calm,Calm,-,N/A,,Clear,0,2012-10-01 07:52:00
3:52 AM,45.0,41.0,86,29.91,10.0,Calm,Calm,-,N/A,,Clear,0,2012-10-01 08:52:00
4:52 AM,43.0,39.9,89,29.90,10.0,Calm,Calm,-,N/A,,Clear,0,2012-10-01 09:52:00
5:52 AM,43.0,39.9,89,29.90,10.0,Calm,Calm,-,N/A,,Clear,0,2012-10-01 10:52:00
6:52 AM,43.0,39.9,89,29.91,10.0,Calm,Calm,-,N/A,,Clear,0,2012-10-01 11:52:00
7:52 AM,45.0,42.1,90,29.92,10.0,Calm,Calm,-,N/A,,Clear,0,2012-10-01 12:52:00
8:52 AM,48.9,45.0,86,29.92,10.0,ESE,4.6,-,N/A,,Clear,110,2012-10-01 13:52:00
9:52 AM,54.0,46.9,77,29.92,10.0,ENE,4.6,-,N/A,,Clear,70,2012-10-01 14:52:00
10:52 AM,57.9,48.0,70,29.91,10.0,East,4.6,-,N/A,,Clear,80,2012-10-01 15:52:00
11:52 AM,64.0,46.9,54,29.89,10.0,ENE,3.5,-,N/A,,Clear,60,2012-10-01 16:52:00
12:52 PM,66.0,44.1,45,29.88,10.0,ENE,5.8,-,N/A,,Clear,60,2012-10-01 17:52:00
1:52 PM,68.0,42.1,39,29.85,10.0,Variable,5.8,-,N/A,,Clear,0,2012-10-01 18:52:00
2:52 PM,69.1,39.9,35,29.84,10.0,ENE,5.8,-,N/A,,Clear,60,2012-10-01 19:52:00
3:52 PM,68.0,39.0,35,29.82,10.0,North,3.5,-,N/A,,Clear,360,2012-10-01 20:52:00
4:52 PM,68.0,39.2,35,29.82,10.0,Calm,Calm,-,N/A,,Clear,0,2012-10-01 21:52:00
5:52 PM,66.9,39.9,37,29.83,10.0,Calm,Calm,-,N/A,,Clear,0,2012-10-01 22:52:00
6:52 PM,59.0,45.0,60,29.83,1.8,Calm,Calm,-,N/A,,Haze,0,2012-10-01 23:52:00
7:02 PM,59.0,46.4,63,29.82,10.0,Calm,Calm,-,N/A,,Clear,0,2012-10-02 00:02:00
7:52 PM,57.0,45.0,64,29.83,10.0,Calm,Calm,-,N/A,,Clear,0,2012-10-02 00:52:00
8:52 PM,57.0,46.0,67,29.83,10.0,Calm,Calm,-,N/A,,Clear,0,2012-10-02 01:52:00
9:52 PM,53.6,46.4,77,29.84,10.0,Calm,Calm,-,N/A,,Clear,0,2012-10-02 02:52:00
10:52 PM,53.1,46.9,80,29.84,10.0,Calm,Calm,-,N/A,,Clear,0,2012-10-02 03:52:00
11:52 PM,51.1,46.0,83,29.84,10.0,Calm,Calm,-,N/A,,Clear,0,2012-10-02 04:52:00